[[{"header":{"parameterUnit":"m.s-1","parameterCategory":1,"la1":30.2991,"la2":30.254,"lo1":-89.0895,"lo2":-89.0444,"dy":0.0017,"dx":0.0017,"nx":28,"ny":28,"refTime":"2024-10-18T09:00:00:Z","depth":0,"parameterNumber":2,"parameterNumberName":"U-component_of_WINDS"},"data":[0,0,0,0,0,0,0,0,0,0,0,0,0,0,0,0,0,0,0,0,0,0,0,0,0,0,0,0,0,0,0,0,0,0,0,0,0,0,0,0,0,0,0,0,0,0,0,0,0,0,0,0,0,0,0,0,0,0,-1.4098,-1.4098,0,-1.4131,-1.4132,-1.4132,-1.4077,-1.4075,-1.4074,-1.4072,-1.4106,-1.4109,-1.4111,0,0,0,0,0,0,0,0,0,0,0,0,0,-1.3986,-1.3989,-1.4098,-1.4098,-1.4099,-1.4131,-1.4132,-1.4132,-1.4078,-1.4075,-1.4073,-1.4071,-1.4105,-1.4108,-1.4111,0,0,0,0,0,0,0,0,0,0,0,0,0,-1.4029,-1.399,-1.4098,-1.4076,-1.4074,-1.4131,-1.4132,-1.4132,-1.4078,-1.4075,-1.4073,-1.407,-1.4104,-1.4108,-1.4112,-1.4192,0,0,-1.4124,-1.4126,0,0,0,0,0,0,0,0,-1.4026,-1.4033,-1.4078,-1.4077,-1.4075,-1.4097,-1.4105,-1.4152,-1.4079,-1.4077,-1.4072,-1.4069,-1.4105,-1.4109,-1.4121,-1.4194,-1.4195,-1.4124,-1.4127,-1.4128,-1.413,0,0,0,0,0,0,0,-1.4024,-1.4031,-1.4111,-1.4079,-1.4077,-1.4063,-1.4066,-1.4113,-1.4106,-1.4077,-1.4073,-1.4077,-1.4104,-1.4118,-1.4122,-1.4196,-1.4124,-1.4128,-1.413,-1.4132,-1.4335,-1.4337,0,0,0,0,0,0,-1.4023,-1.4029,-1.411,-1.4112,-1.4044,-1.4068,-1.4071,-1.4093,-1.4106,-1.4105,-1.408,-1.4075,-1.4112,-1.4117,-1.4123,-1.4217,-1.4128,-1.4132,-1.4134,-1.4332,-1.4335,-1.4338,0,0,0,0,0,0,-1.4021,-1.4031,-1.4109,-1.407,-1.4078,-1.4073,-1.4098,-1.4095,-1.4109,-1.4108,-1.4106,-1.4095,-1.411,-1.4117,-1.4175,-1.4218,-1.4134,-1.4138,-1.4328,-1.4333,-1.4337,-1.4407,0,0,0,0,0,0,-1.4018,-1.4031,-1.4062,-1.4071,-1.4081,-1.4161,-1.41,-1.4098,-1.4116,-1.411,-1.4122,-1.4121,-1.4109,-1.4169,-1.4179,-1.4222,-1.4141,-1.4324,-1.433,-1.4335,-1.4401,-1.4413,-1.4424,0,0,0,0,0,-1.4015,-1.4081,-1.4064,-1.4074,-1.4119,-1.4164,-1.4169,-1.4153,-1.412,-1.415,-1.4149,-1.4121,-1.4211,-1.4176,-1.4186,-1.4231,-1.4321,-1.4328,-1.4335,-1.4396,-1.4411,-1.4424,0,0,0,0,0,0,-1.4078,-1.4082,-1.4063,-1.4134,-1.4149,-1.4154,-1.4193,-1.417,-1.4195,-1.4188,-1.4167,-1.417,-1.4233,-1.4237,-1.4198,-1.4308,-1.4261,-1.427,-1.4303,-1.4318,-1.4329,-1.4327,-1.4144,0,0,0,0,0,-1.41,-1.4136,-1.4137,-1.4199,-1.4208,-1.4199,-1.4218,-1.4204,-1.4219,-1.4225,-1.4228,-1.4244,-1.4275,-1.4296,-1.4326,-1.4401,-1.4402,-1.4436,-1.4448,-1.4457,-1.4466,-1.4505,-1.4519,-1.4361,-1.4361,-1.436,0,0,-1.4146,-1.4152,-1.4177,-1.4212,-1.4222,-1.4259,-1.4205,-1.4247,-1.4274,-1.4231,-1.4286,-1.4289,-1.4304,-1.4371,-1.4401,-1.4377,-1.451,-1.4466,-1.4473,-1.4477,-1.4513,-1.4528,-1.4542,-1.4365,-1.4364,-1.4364,0,0,-1.4249,-1.4258,-1.431,-1.4321,-1.4337,-1.433,-1.4343,-1.4351,-1.4352,-1.4406,-1.4374,-1.4406,-1.4461,-1.4473,-1.4486,-1.4592,-1.4566,-1.4602,-1.4663,-1.4701,-1.4713,-1.4724,-1.4762,-1.4775,-1.461,-1.461,-1.461,0,-1.4305,-1.436,-1.434,-1.4384,-1.44,-1.4362,-1.4415,-1.4426,-1.4451,-1.4462,-1.4435,-1.4502,-1.451,-1.4579,-1.4604,-1.4616,-1.463,-1.4601,-1.4713,-1.4724,-1.4734,-1.4769,-1.4783,-1.4614,-1.4614,-1.4613,-1.4613,0,-1.4427,-1.4465,-1.4506,-1.453,-1.455,-1.4598,-1.4586,-1.4609,-1.4592,-1.4588,-1.4644,-1.4651,-1.4681,-1.4696,-1.4681,-1.4762,-1.4746,-1.4717,-1.4668,-1.4754,-1.4786,-1.48,-1.462,-1.4619,-1.4618,-1.4617,0,0,-1.4573,-1.4584,-1.4599,-1.4609,-1.4622,-1.4651,-1.4697,-1.4725,-1.4745,-1.4762,-1.48,-1.4846,-1.4818,-1.4833,-1.4819,-1.4852,-1.4935,-1.4818,-1.4818,-1.4839,-1.5024,-1.5046,-1.5062,-1.4917,-1.492,-1.4922,-1.5022,0,-1.4675,-1.4754,-1.4737,-1.4814,-1.4849,-1.4812,-1.4852,-1.4864,-1.4861,-1.4889,-1.4886,-1.4919,-1.488,-1.4889,-1.492,-1.4918,-1.4971,-1.491,-1.4952,-1.4953,-1.495,-1.5079,-1.5104,-1.5198,-1.5035,-1.5037,-1.5039,0,-1.4806,-1.4827,-1.4908,-1.4914,-1.4928,-1.4964,-1.4988,-1.5016,-1.5028,-1.5024,-1.504,-1.5018,-1.5063,-1.5013,-1.5074,-1.5033,-1.5048,-1.5049,-1.5053,-1.5056,-1.5002,-1.5087,-1.5228,-1.5242,-1.5059,-1.5057,-1.5056,0,-1.4904,-1.4953,-1.5007,-1.5017,-1.5025,-1.5051,-1.5056,-1.5066,-1.5083,-1.5104,-1.5115,-1.514,-1.5154,-1.5174,-1.516,-1.5126,-1.5223,-1.5172,-1.522,-1.522,-1.5243,-1.5242,-1.5389,-1.5252,-1.5252,-1.5252,-1.5252,0,-1.502,-1.5071,-1.5051,-1.5085,-1.514,-1.5119,-1.5174,-1.5175,-1.5183,-1.5216,-1.5185,-1.5216,-1.5195,-1.5224,-1.5213,-1.5264,-1.5271,-1.5268,-1.5265,-1.5271,-1.5272,-1.5282,-1.5275,-1.5256,-1.5255,-1.5254,-1.5254,0,-1.514,-1.5128,-1.5185,-1.5188,-1.519,-1.523,-1.5233,-1.5263,-1.5257,-1.5299,-1.5307,-1.5298,-1.533,-1.5317,-1.5352,-1.5345,-1.541,-1.5398,-1.5406,-1.5403,-1.5451,-1.5447,-1.561,-1.5631,-1.5481,-1.5483,-1.5484,0,-1.5215,-1.5253,-1.526,-1.5279,-1.5286,-1.5318,-1.5335,-1.5315,-1.5334,-1.535,-1.5379,-1.5408,-1.5431,-1.5484,-1.5481,-1.5507,-1.5495,-1.555,-1.5499,-1.5504,-1.5496,-1.5494,-1.5497,-1.5561,-1.5563,-1.5564,-1.5565,0,-1.535,-1.5342,-1.5368,-1.5392,-1.5414,-1.5432,-1.5447,-1.5465,-1.5445,-1.5468,-1.5501,-1.5518,-1.5553,-1.5582,-1.5605,-1.5609,-1.5584,-1.5581,-1.5594,-1.5601,-1.5604,-1.5603,-1.5435,-1.5578,-1.5577,-1.5576,-1.5575,-1.5574,-1.545,-1.5482,-1.5491,-1.552,-1.5529,-1.5544,-1.5573,-1.5569,-1.5596,-1.5623,-1.5609,-1.5647,-1.5656,-1.5684,-1.5691,-1.572,-1.5698,-1.5716,-1.5721,-1.5726,-1.5732,-1.5599,-1.5724,-1.5724,-1.5723,-1.5723,-1.5723,0,-1.5583,-1.5587,-1.5614,-1.5636,-1.5659,-1.5632,-1.5647,-1.5668,-1.5702,-1.5713,-1.5735,-1.5772,-1.58,-1.5798,-1.5823,-1.5846,-1.5835,-1.5854,-1.5852,-1.5853,-1.575,-1.5737,-1.5862,-1.5862,-1.5862,-1.5862,-1.5862,-1.5862,-1.5656,-1.5707,-1.57,-1.5755,-1.5758,-1.5794,-1.5805,-1.5818,-1.5826,-1.5869,-1.5892,-1.5889,-1.5895,-1.592,-1.5944,-1.5943,-1.5954,-1.5977,-1.5971,-1.5875,-1.5861,-1.5848,-1.5835,-1.5979,-1.5979,-1.6072,-1.6072,-1.6073]},{"header":{"parameterUnit":"m.s-1","parameterCategory":1,"la1":30.2991,"la2":30.254,"lo1":-89.0895,"lo2":-89.0444,"dy":0.0017,"dx":0.0017,"nx":28,"ny":28,"refTime":"2024-10-18T09:00:00:Z","depth":0,"parameterNumber":3,"parameterNumberName":"V-component_of_WINDS"},"data":[0,0,0,0,0,0,0,0,0,0,0,0,0,0,0,0,0,0,0,0,0,0,0,0,0,0,0,0,0,0,0,0,0,0,0,0,0,0,0,0,0,0,0,0,0,0,0,0,0,0,0,0,0,0,0,0,0,0,-2.6412,-2.6412,0,-2.6446,-2.6446,-2.6446,-2.6434,-2.6433,-2.6432,-2.6431,-2.6464,-2.6465,-2.6467,0,0,0,0,0,0,0,0,0,0,0,0,0,-2.6333,-2.6334,-2.6412,-2.6412,-2.6413,-2.6446,-2.6446,-2.6446,-2.6434,-2.6433,-2.6432,-2.6431,-2.6463,-2.6465,-2.6467,0,0,0,0,0,0,0,0,0,0,0,0,0,-2.6367,-2.6335,-2.6412,-2.641,-2.641,-2.6445,-2.6446,-2.6447,-2.6434,-2.6433,-2.6432,-2.6431,-2.6462,-2.6465,-2.6467,-2.6505,0,0,-2.6474,-2.6475,0,0,0,0,0,0,0,0,-2.6365,-2.637,-2.641,-2.641,-2.6411,-2.6434,-2.643,-2.6466,-2.6434,-2.6425,-2.6431,-2.643,-2.6455,-2.6457,-2.6466,-2.6506,-2.6507,-2.6474,-2.6476,-2.6477,-2.6477,0,0,0,0,0,0,0,-2.6363,-2.6368,-2.6425,-2.6411,-2.6411,-2.6407,-2.641,-2.6437,-2.6446,-2.6426,-2.6425,-2.6429,-2.6454,-2.6464,-2.6467,-2.6508,-2.6474,-2.6476,-2.6478,-2.6479,-2.6578,-2.658,0,0,0,0,0,0,-2.636,-2.6366,-2.6424,-2.6426,-2.6385,-2.6409,-2.6413,-2.6428,-2.6445,-2.6447,-2.643,-2.6428,-2.6461,-2.6464,-2.6468,-2.6512,-2.6477,-2.6479,-2.648,-2.6577,-2.6579,-2.658,0,0,0,0,0,0,-2.6359,-2.6366,-2.6423,-2.6396,-2.6403,-2.6412,-2.6428,-2.6429,-2.6439,-2.6449,-2.645,-2.6438,-2.646,-2.6465,-2.6495,-2.6513,-2.648,-2.6482,-2.6576,-2.6578,-2.6579,-2.66,0,0,0,0,0,0,-2.6357,-2.6365,-2.638,-2.6396,-2.6404,-2.645,-2.6429,-2.6431,-2.6443,-2.6441,-2.6457,-2.6458,-2.6459,-2.6492,-2.6498,-2.6515,-2.6484,-2.6574,-2.6577,-2.6579,-2.6598,-2.6603,-2.6607,0,0,0,0,0,-2.6354,-2.6385,-2.6381,-2.6388,-2.6424,-2.6451,-2.6456,-2.6457,-2.6445,-2.6459,-2.6465,-2.6458,-2.651,-2.6495,-2.6502,-2.652,-2.6573,-2.6576,-2.6579,-2.6596,-2.6602,-2.6606,0,0,0,0,0,0,-2.637,-2.6387,-2.6383,-2.642,-2.6435,-2.6449,-2.6468,-2.6463,-2.648,-2.6478,-2.6478,-2.6481,-2.6513,-2.652,-2.6503,-2.6557,-2.654,-2.6544,-2.6551,-2.6556,-2.656,-2.6557,-2.6486,0,0,0,0,0,-2.6378,-2.64,-2.6413,-2.6445,-2.6452,-2.6459,-2.6471,-2.6471,-2.6485,-2.6491,-2.6499,-2.6513,-2.6532,-2.6545,-2.6563,-2.6599,-2.6602,-2.6615,-2.662,-2.6623,-2.6626,-2.6644,-2.665,-2.6589,-2.6589,-2.6589,0,0,-2.6394,-2.6406,-2.642,-2.6448,-2.6459,-2.6481,-2.6464,-2.6488,-2.6503,-2.6494,-2.6523,-2.653,-2.6545,-2.6578,-2.6593,-2.6585,-2.6644,-2.6627,-2.6629,-2.663,-2.6648,-2.6653,-2.6658,-2.6591,-2.6591,-2.659,0,0,-2.6434,-2.6447,-2.6473,-2.6485,-2.6502,-2.6506,-2.6513,-2.6528,-2.6532,-2.6562,-2.6555,-2.6573,-2.6607,-2.6617,-2.6627,-2.6671,-2.6664,-2.6677,-2.6699,-2.6716,-2.6721,-2.6725,-2.6739,-2.6745,-2.6681,-2.6681,-2.6681,0,-2.6452,-2.6485,-2.6488,-2.6512,-2.6524,-2.6517,-2.6543,-2.6554,-2.6576,-2.6584,-2.6575,-2.6616,-2.6626,-2.6661,-2.6671,-2.668,-2.6686,-2.6675,-2.6721,-2.6725,-2.6729,-2.6742,-2.6748,-2.6682,-2.6682,-2.6682,-2.6682,0,-2.6506,-2.6529,-2.6548,-2.657,-2.6584,-2.6609,-2.6614,-2.6628,-2.6627,-2.6631,-2.6661,-2.6672,-2.6692,-2.6701,-2.67,-2.6735,-2.6729,-2.6721,-2.6703,-2.6736,-2.6748,-2.6754,-2.6684,-2.6683,-2.6683,-2.6683,0,0,-2.6556,-2.6579,-2.6586,-2.6595,-2.6613,-2.6631,-2.6655,-2.6675,-2.6686,-2.6702,-2.6721,-2.675,-2.6741,-2.6752,-2.6752,-2.6768,-2.68,-2.6757,-2.6757,-2.6763,-2.6838,-2.6844,-2.685,-2.6796,-2.6797,-2.6798,-2.6836,0,-2.6597,-2.664,-2.6643,-2.6682,-2.6702,-2.6696,-2.6717,-2.673,-2.6735,-2.6752,-2.6757,-2.6777,-2.6765,-2.6772,-2.6787,-2.6793,-2.6815,-2.679,-2.6813,-2.6813,-2.6807,-2.6857,-2.6863,-2.6898,-2.6841,-2.6842,-2.6843,0,-2.665,-2.6667,-2.6708,-2.6723,-2.6731,-2.675,-2.6768,-2.6786,-2.6799,-2.6802,-2.6814,-2.6812,-2.6835,-2.6818,-2.685,-2.6833,-2.6842,-2.6846,-2.6848,-2.6849,-2.6829,-2.6857,-2.691,-2.6914,-2.6851,-2.685,-2.685,0,-2.6681,-2.6714,-2.6743,-2.6751,-2.6769,-2.6782,-2.679,-2.6803,-2.6815,-2.6831,-2.6838,-2.6856,-2.6866,-2.6879,-2.6881,-2.6869,-2.6912,-2.6896,-2.6914,-2.6913,-2.6922,-2.6921,-2.6975,-2.693,-2.693,-2.693,-2.693,0,-2.6725,-2.675,-2.6757,-2.6774,-2.6802,-2.6804,-2.683,-2.6837,-2.6849,-2.6866,-2.6863,-2.6879,-2.6881,-2.6898,-2.69,-2.6924,-2.6929,-2.6931,-2.6931,-2.693,-2.693,-2.6935,-2.6932,-2.6932,-2.6931,-2.6931,-2.6931,0,-2.6763,-2.677,-2.68,-2.6814,-2.6819,-2.6838,-2.685,-2.6866,-2.6871,-2.6893,-2.6898,-2.6905,-2.6925,-2.6928,-2.6951,-2.6952,-2.6982,-2.698,-2.6977,-2.6976,-2.6993,-2.6991,-2.7052,-2.7059,-2.7011,-2.7011,-2.7012,0,-2.6791,-2.681,-2.6826,-2.6838,-2.6847,-2.6866,-2.6878,-2.6881,-2.6893,-2.691,-2.6924,-2.6943,-2.6958,-2.6989,-2.6996,-2.7013,-2.701,-2.703,-2.7013,-2.7011,-2.7009,-2.7007,-2.7008,-2.7033,-2.7034,-2.7034,-2.7035,0,-2.6838,-2.6839,-2.6857,-2.6876,-2.689,-2.6905,-2.6919,-2.6929,-2.6933,-2.6947,-2.6967,-2.6979,-2.7002,-2.7021,-2.7038,-2.7045,-2.704,-2.704,-2.7045,-2.7044,-2.7041,-2.7041,-2.6984,-2.7038,-2.7038,-2.7038,-2.7038,-2.7037,-2.687,-2.6886,-2.69,-2.692,-2.6931,-2.6943,-2.6959,-2.6966,-2.6983,-2.7002,-2.7003,-2.7024,-2.7037,-2.7059,-2.7067,-2.7083,-2.7077,-2.7084,-2.7086,-2.7087,-2.7088,-2.704,-2.7087,-2.7086,-2.7086,-2.7086,-2.7086,0,-2.6915,-2.6924,-2.6942,-2.6962,-2.6977,-2.6972,-2.6987,-2.7,-2.7019,-2.7031,-2.7046,-2.7069,-2.7087,-2.7095,-2.7112,-2.7123,-2.7121,-2.7128,-2.7126,-2.7127,-2.7093,-2.7087,-2.7129,-2.7129,-2.7129,-2.7129,-2.7129,-2.7129,-2.6941,-2.6967,-2.6971,-2.7002,-2.701,-2.7032,-2.704,-2.7052,-2.7062,-2.7087,-2.7102,-2.7107,-2.7118,-2.7136,-2.7151,-2.7153,-2.7159,-2.7166,-2.7166,-2.7134,-2.713,-2.7126,-2.7119,-2.7167,-2.7167,-2.7199,-2.7199,-2.7199]}]]